Simultaneous Nadir Overpasses (SNOs) Predictions

Prediction of SNOs between GOES-14 and NOAA-20 Satellite Orbit:

Table of predicted SNOs for the next 14.0 days since TLE Epoch: 2/25/2023
Index Date Time (GOES-14) GOES-14 Lat,Lon NOAA-20 Lat,Lon Distance(km) Time Diff (sec)
1 02/25/2023 08:51:49 0.06,-108.00 0.76,-111.21 364.59 80
2 02/26/2023 08:30:25 0.06,-107.99 -0.25,-106.68 149.60 80
3 02/27/2023 20:52:23 -0.07,-108.02 -0.93,-111.99 451.28 80
4 02/28/2023 20:36:20 -0.07,-108.01 0.08,-107.46 63.48 80
5 03/03/2023 08:39:25 0.08,-107.92 0.13,-108.20 30.94 80
6 03/04/2023 08:18:01 0.07,-107.91 -0.89,-103.67 483.23 80
7 03/05/2023 20:39:59 -0.08,-107.94 -0.34,-108.97 117.87 80
8 03/06/2023 20:23:55 -0.08,-107.93 0.69,-104.44 397.05 80
9 03/08/2023 08:45:44 0.09,-107.86 0.48,-109.72 210.77 80
10 03/09/2023 08:24:21 0.08,-107.85 -0.54,-105.19 303.53 80
11 03/10/2023 20:46:18 -0.09,-107.87 -0.67,-110.49 298.47 80
